DW8500 Weather Reports


Display with metric or nautical units.
time (UTC)temp
F
wind
direction
speed
MPH
gust
MPH
rain 1hr
in
rain 24hr
in
rain mn
in
humidity
%
barometer
mb
20260503210253 50 313 5.0 16.0 0.00 0.09 0.02 28 1006.8
20260503205754 50 359 6.0 14.0 0.00 0.09 0.02 28 1006.8
20260503205251 51 266 5.0 14.0 0.00 0.09 0.02 28 1006.7
20260503204751 51 47 4.0 13.0 0.00 0.09 0.02 29 1006.6
20260503204250 51 233 3.0 14.0 0.00 0.09 0.02 31 1006.5
20260503203805 51 248 3.0 14.0 0.00 0.09 0.02 32 1006.6
20260503203243 51 13 4.0 12.0 0.00 0.09 0.02 28 1006.5
20260503202743 51 14 4.0 12.0 0.00 0.09 0.02 29 1006.5
20260503202257 51 285 5.0 11.0 0.00 0.09 0.02 28 1006.5
20260503201756 51 235 4.0 10.0 0.00 0.09 0.02 28 1006.6
20260503201244 51 278 3.0 15.0 0.00 0.09 0.02 29 1006.5
20260503200804 51 257 4.0 15.0 0.00 0.09 0.02 29 1006.4
20260503200239 52 300 4.0 13.0 0.00 0.09 0.02 30 1006.4
20260503195816 52 307 5.0 13.0 0.00 0.09 0.02 28 1006.5
20260503195310 52 28 3.0 10.0 0.00 0.09 0.02 29 1006.5
20260503194746 51 291 3.0 10.0 0.00 0.09 0.02 28 1006.4
20260503194245 52 327 2.0 8.0 0.00 0.09 0.02 29 1006.4
20260503193745 52 304 2.0 16.0 0.00 0.09 0.02 30 1006.3
20260503193241 51 300 4.0 16.0 0.00 0.09 0.02 28 1006.5
20260503192742 51 277 4.0 9.0 0.00 0.09 0.02 29 1006.3
20260503192259 51 28 3.0 11.0 0.00 0.09 0.02 30 1006.4
20260503191738 52 272 4.0 11.0 0.00 0.09 0.02 28 1006.4
20260503191252 52 18 3.0 7.0 0.00 0.09 0.02 29 1006.4
20260503190750 52 276 1.0 6.0 0.00 0.09 0.02 31 1006.3
20260503190247 51 63 3.0 11.0 0.00 0.09 0.02 31 1006.4
20260503185748 51 352 3.0 11.0 0.00 0.14 0.02 30 1006.5
20260503185244 51 285 3.0 12.0 0.00 0.14 0.02 31 1006.5
20260503184743 51 281 3.0 12.0 0.00 0.14 0.02 33 1006.6
20260503184524 51 264 4.0 14.0 0.00 0.14 0.02 30 1006.8
20260503184319 51 96 3.0 14.0 0.00 0.14 0.02 33 1006.5
20260503183758 52 259 5.0 14.0 0.00 0.14 0.02 30 1006.4
20260503183255 52 311 4.0 13.0 0.00 0.14 0.02 32 1006.4
20260503182752 52 277 3.0 10.0 0.00 0.14 0.02 31 1006.4
20260503182247 52 257 3.0 10.0 0.00 0.14 0.02 33 1006.4
20260503181742 51 271 2.0 11.0 0.00 0.14 0.02 34 1006.4
20260503181258 51 266 3.0 11.0 0.00 0.14 0.02 34 1006.4
20260503180738 51 292 3.0 13.0 0.00 0.14 0.02 34 1006.4
20260503180253 51 131 1.0 13.0 0.00 0.14 0.02 35 1006.5
20260503175754 51 308 4.0 13.0 0.00 0.31 0.02 33 1006.5
20260503174751 53 82 5.0 10.0 0.00 0.31 0.02 34 1006.3
20260503174250 52 77 5.0 9.0 0.00 0.31 0.02 36 1006.4
20260503173809 51 3 2.0 8.0 0.00 0.31 0.02 39 1006.4
20260503173322 51 51 4.0 9.0 0.00 0.31 0.02 40 1006.5
20260503172739 51 63 3.0 9.0 0.00 0.31 0.02 38 1006.5
20260503172256 50 129 3.0 9.0 0.00 0.31 0.02 37 1006.5
20260503171754 50 294 1.0 9.0 0.00 0.31 0.02 41 1006.6
20260503171250 50 240 3.0 9.0 0.00 0.31 0.02 38 1006.6
20260503170750 50 284 2.0 10.0 0.00 0.31 0.02 39 1006.5
20260503170249 49 331 4.0 13.0 0.00 0.31 0.02 39 1006.6
20260503150745 46 326 4.0 13.0 0.00 0.31 0.02 49 1007.0
20260503150244 45 290 4.0 13.0 0.00 0.31 0.02 48 1007.0
20260503140258 41 319 2.0 8.0 0.02 0.31 0.02 61 1007.2
20260503131256 43 297 2.0 9.0 0.00 0.29 0.00 59 1007.3
20260503130755 42 337 1.0 9.0 0.00 0.29 0.00 58 1007.2
20260503110747 39 77 1.0 10.0 0.00 0.39 0.00 61 1007.1
20260503110245 39 264 2.0 10.0 0.00 0.39 0.00 61 1007.0
20260503090251 39 12 1.0 4.0 0.00 0.43 0.00 61 1007.4
20260503081242 40 281 1.0 4.0 0.00 0.43 0.00 62 1008.1
20260503080745 40 206 0.0 2.0 0.00 0.43 0.00 62 1008.2
20260503080303 40 328 1.0 3.0 0.00 0.43 0.00 62 1008.3
20260503072811 40 278 0.0 1.0 0.00 0.43 0.00 62 1008.6
20260503072248 40 198 0.0 1.0 0.00 0.43 0.00 62 1008.8
20260503071807 40 221 0.0 1.0 0.00 0.43 0.00 62 1008.7
20260503071243 40 241 0.0 2.0 0.00 0.43 0.00 62 1008.7
20260503070745 40 284 0.0 2.0 0.00 0.43 0.00 62 1008.7
20260503070238 40 266 0.0 3.0 0.00 0.43 0.00 62 1008.8
20260503060249 41 158 0.0 1.0 0.00 0.43 0.00 63 1009.8
20260503054804 41 262 0.0 1.0 0.00 0.43 0.00 63 1009.8
20260503054240 42 263 0.0 1.0 0.00 0.43 0.00 63 1009.8
20260503053741 42 263 0.0 1.0 0.00 0.43 0.00 63 1009.9
20260503053238 41 277 0.0 1.0 0.00 0.43 0.00 64 1009.9
20260503052756 41 277 0.0 1.0 0.00 0.43 0.00 64 1010.0
20260503052312 41 293 0.0 1.0 0.00 0.43 0.00 64 1010.0
20260503051751 41 262 0.0 0.0 0.00 0.43 0.00 64 1010.0
20260503051242 41 262 0.0 0.0 0.00 0.43 0.00 64 1010.0
20260503050742 41 262 0.0 0.0 0.00 0.43 0.00 63 1010.1
20260503050242 41 319 0.0 1.0 0.00 0.43 0.00 63 1010.2
20260503045742 42 319 0.0 3.0 0.00 0.43 0.00 63 1010.3
20260503045243 42 92 0.0 3.0 0.00 0.43 0.00 63 1010.3
20260503044744 42 231 1.0 3.0 0.00 0.43 0.00 63 1010.3
20260503044241 42 174 0.0 1.0 0.00 0.43 0.00 63 1010.4
20260503043743 42 144 0.0 1.0 0.00 0.43 0.00 63 1010.4
20260503043241 42 143 0.0 1.0 0.00 0.43 0.00 63 1010.4
20260503042742 42 143 0.0 2.0 0.00 0.43 0.00 62 1010.4
20260503042238 42 271 0.0 2.0 0.00 0.43 0.00 62 1010.7
20260503041757 42 250 0.0 2.0 0.00 0.43 0.00 62 1010.8
20260503041240 42 246 0.0 2.0 0.00 0.43 0.00 62 1010.7
20260503040814 43 219 0.0 2.0 0.00 0.43 0.00 62 1010.6
20260503040248 43 76 0.0 2.0 0.00 0.43 0.00 61 1010.6
20260503035747 43 79 0.0 2.0 0.00 0.43 0.43 61 1010.7
20260503035238 43 271 1.0 2.0 0.00 0.43 0.43 61 1010.6
20260503034752 43 319 0.0 2.0 0.00 0.43 0.43 61 1010.6
20260503034508 43 350 0.0 4.0 0.00 0.43 0.43 61 1010.8
20260503034302 43 349 0.0 4.0 0.00 0.43 0.43 61 1010.8
20260503033735 43 233 2.0 5.0 0.00 0.43 0.43 61 1010.7
20260503033255 44 310 1.0 5.0 0.00 0.43 0.43 61 1010.7
20260503032750 44 224 1.0 5.0 0.00 0.43 0.43 61 1010.7
20260503032248 44 248 2.0 5.0 0.00 0.43 0.43 61 1010.5
20260503031739 44 271 1.0 5.0 0.00 0.43 0.43 61 1010.6
20260503031237 44 80 1.0 6.0 0.00 0.43 0.43 61 1010.5
20260503030749 44 34 1.0 7.0 0.00 0.43 0.43 61 1010.6
20260503030255 44 14 1.0 7.0 0.00 0.43 0.43 62 1010.6
20260503025744 44 291 1.0 3.0 0.00 0.43 0.43 62 1010.8
20260503025257 44 250 1.0 4.0 0.00 0.43 0.43 63 1010.8
20260503024751 44 277 1.0 4.0 0.00 0.43 0.43 63 1010.8
20260503024245 44 298 1.0 3.0 0.00 0.43 0.43 63 1010.7
20260503023744 44 34 1.0 6.0 0.00 0.43 0.43 64 1010.9
20260503023310 44 268 2.0 6.0 0.00 0.43 0.43 65 1010.9
20260503022814 44 293 0.0 2.0 0.00 0.43 0.43 65 1010.9
20260503022249 44 301 0.0 2.0 0.00 0.43 0.43 65 1011.0
20260503021750 44 255 0.0 2.0 0.00 0.43 0.43 65 1011.0
20260503021504 43 256 0.0 2.0 0.00 0.43 0.43 65 1011.3
20260503021303 44 260 1.0 2.0 0.00 0.43 0.43 65 1011.0
20260503020742 44 241 1.0 2.0 0.00 0.43 0.43 65 1011.0
20260503020257 44 234 0.0 2.0 0.00 0.43 0.43 65 1011.1
20260503015735 43 223 0.0 2.0 0.00 0.43 0.43 65 1011.2
20260503015255 43 287 0.0 0.0 0.00 0.43 0.43 65 1011.1
20260503014736 44 287 0.0 0.0 0.00 0.43 0.43 65 1011.0
20260503014253 44 287 0.0 0.0 0.00 0.43 0.43 65 1011.1
20260503013751 44 287 0.0 0.0 0.00 0.43 0.43 65 1011.0
20260503013248 44 285 0.0 0.0 0.00 0.43 0.43 65 1011.0
20260503012749 44 285 0.0 0.0 0.00 0.43 0.43 64 1011.0
20260503012246 44 285 0.0 0.0 0.00 0.43 0.43 64 1011.0
20260503011747 44 285 0.0 0.0 0.00 0.43 0.43 64 1011.1
20260503011240 44 285 0.0 0.0 0.00 0.43 0.43 64 1011.1
20260503010802 44 285 0.0 0.0 0.00 0.43 0.43 64 1010.9
20260503010240 44 285 0.0 0.0 0.00 0.43 0.43 64 1010.8
20260503005740 44 285 0.0 0.0 0.00 0.43 0.43 64 1010.9
20260503005238 44 285 0.0 0.0 0.00 0.43 0.43 64 1010.9
20260503004736 44 285 0.0 0.0 0.00 0.43 0.43 64 1011.0
20260503004254 44 285 0.0 0.0 0.00 0.43 0.43 64 1011.0
20260503003753 45 285 0.0 2.0 0.00 0.43 0.43 64 1010.9
20260503003249 45 285 0.0 2.0 0.01 0.43 0.43 64 1010.9
20260503003009 44 284 0.0 2.0 0.01 0.43 0.43 64 1011.1
20260503002808 45 270 0.0 0.0 0.01 0.43 0.43 64 1010.9
20260503002241 45 270 0.0 0.0 0.01 0.43 0.43 64 1010.9
20260503001741 45 270 0.0 0.0 0.01 0.43 0.43 64 1010.7
20260503001238 45 270 0.0 1.0 0.02 0.43 0.43 63 1010.8
20260503000738 46 270 0.0 1.0 0.02 0.43 0.43 63 1010.6
20260503000235 46 270 0.0 1.0 0.02 0.43 0.43 63 1010.6
20260502235759 46 270 0.0 1.0 0.02 0.43 0.43 63 1010.6
20260502235235 46 270 0.0 2.0 0.02 0.43 0.43 63 1010.5
20260502234756 46 270 1.0 3.0 0.02 0.43 0.43 63 1010.5
20260502234232 46 269 1.0 2.0 0.02 0.43 0.43 63 1010.4
20260502233746 46 113 0.0 2.0 0.02 0.43 0.43 62 1010.3
20260502233242 46 102 0.0 1.0 0.01 0.42 0.42 60 1010.4
20260502233007 46 107 0.0 1.0 0.01 0.42 0.42 60 1010.6
20260502232802 46 102 1.0 2.0 0.01 0.42 0.42 59 1010.5
20260502232237 47 24 0.0 2.0 0.02 0.42 0.42 61 1010.7
20260502231755 47 285 0.0 2.0 0.02 0.42 0.42 62 1010.7
20260502231515 46 41 0.0 2.0 0.01 0.41 0.41 62 1010.9
20260502231250 47 283 0.0 2.0 0.01 0.41 0.41 62 1010.6
20260502230247 47 73 0.0 1.0 0.01 0.41 0.41 62 1010.5
20260502230004 47 43 0.0 1.0 0.01 0.41 0.41 62 1010.6
20260502225803 47 44 0.0 1.0 0.01 0.41 0.41 62 1010.4
20260502225239 48 43 0.0 1.0 0.01 0.41 0.41 62 1010.4
20260502224739 48 44 0.0 1.0 0.01 0.41 0.41 62 1010.4
20260502224238 48 1 0.0 1.0 0.01 0.41 0.41 61 1010.4
20260502223735 48 246 0.0 2.0 0.03 0.41 0.41 61 1010.4
20260502223234 48 231 1.0 3.0 0.03 0.41 0.41 62 1010.3
20260502222736 49 51 1.0 3.0 0.04 0.41 0.41 63 1010.3
20260502222253 49 255 0.0 1.0 0.04 0.40 0.40 63 1010.2
20260502221752 49 129 0.0 1.0 0.04 0.40 0.40 63 1010.1
20260502221248 49 129 0.0 0.0 0.04 0.40 0.40 63 1009.9
20260502220747 49 129 0.0 0.0 0.04 0.40 0.40 63 1010.0
20260502220243 49 129 0.0 1.0 0.04 0.40 0.40 63 1010.0
20260502220020 49 129 0.0 1.0 0.04 0.40 0.40 62 1010.0
20260502215309 49 129 0.0 1.0 0.04 0.40 0.40 62 1010.0
20260502214747 49 129 0.0 1.0 0.04 0.40 0.40 62 1009.8
20260502214245 49 129 0.0 1.0 0.04 0.40 0.40 61 1009.8
20260502213744 50 129 0.0 1.0 0.02 0.38 0.38 62 1009.8
20260502213243 50 129 0.0 1.0 0.02 0.38 0.38 62 1009.9
20260502212741 50 129 0.0 0.0 0.01 0.37 0.37 61 1009.8
20260502212239 50 129 0.0 0.0 0.00 0.36 0.36 62 1009.9
20260502211740 50 129 0.0 0.0 0.00 0.36 0.36 61 1009.9
20260502211236 50 129 0.0 0.0 0.00 0.36 0.36 61 1009.9
20260502210811 50 129 0.0 1.0 0.00 0.36 0.36 61 1009.9